Weather in Newark-on-Trent

United Kingdom     53°04′26″N   0°48′33″E
temp.,
°C
wind,
m/s
gust,
m/s
humid.,
%
clouds,
%
prec.,
mm/h
press.,
hPa
HPBL,
m
8 may, sat
sat801:00+4sse3386100 0.1 101330
04:00+5se4986100 0.0 1010233
07:00+4ese61494100 2.2 1007443
10:00+7se91898100 8.7 1001699
13:00+12ssw71596100 13.7 998882
16:00+13ssw81595100 0.9 998960
19:00+13ssw81693100 0.9 9981041
22:00+13ssw91687100 0.0 9981002
9 may, sun
sun901:00+13ssw91676100 0.0 9971069
04:00+12s816851 0.0 995711
07:00+11s816881 0.0 995721
10:00+15ssw81379100 0.0 9941206
13:00+14ssw71385100 0.3 9941259
16:00+16sw71474100 0.2 9951633
19:00+13s61281100 0.3 995678
22:00+9s51292100 0.0 996309
10 may, mon
mon1001:00+9s51285100 0.0 996376
04:00+8s51288100 0.0 995404
07:00+9s6129022 0.0 996662
10:00+13s9127068 0.0 9971389
13:00+13ssw8137724 0.4 9981479
16:00+14ssw9147410 0.7 9991630
19:00+12ssw713760 0.9 10011192
22:00+8s511865 0.0 1004292
11 may, tue
tue1101:00+6s410940 0.0 1006214
04:00+5s37945 0.0 1006135
07:00+7se35876 0.0 1007161
10:00+12se567548 0.0 1007786
13:00+15sse5763100 0.6 10061704
16:00+14ssw5676100 1.6 10061000
19:00+11ssw1188100 4.3 100646
22:00+9sse2391100 0.9 100748
12 may, wed
wed1201:00+8sse359665 1.9 1007123
04:00+6sse229453 0.6 100732
07:00+8sse249215 0.6 1007126
10:00+12s458052 0.1 1006821
13:00+13ssw567880 1.3 10061006
16:00+14ssw577097 0.9 10061465
19:00+12ssw4887100 3.1 1006504
22:00+9s41095100 0.6 1007307